Flag for Germany Weather past 2 weeks in Schwerin, Mecklenburg-Western Pomerania, Germany

Now
50 °F

Overcast.


Feels Like: 50 °F
Forecast: 47 / 56 °F
Wind: 1 mph from Southwest

Location: Schwerin

Current Time: May 24, 2015 at 9:29:53 AM

Latest Report: May 24, 2015 at 9:00 AM


Visibility: 13 mi

Pressure: 30.16 "Hg

Humidity: 80%

Dew point: 44 °F

Location of SchwerinLocation

Historic Weather in Schwerin — Graph

°F

Schwerin temperature yesterday

Maximum temperature yesterday: 58 °F (at 6:00 PM)
Minimum temperature yesterday: 49 °F (at 10:00 PM)
Average temperature yesterday: 54 °F

Past Weeks' High & Low Weather Summary

 TemperatureHumidityPressure
High75 °F (May 12, 3:00 PM)97% (May 21, 6:00 AM)30.36 "Hg (May 21, 6:00 AM)
Low40 °F (May 16, 4:00 AM)40% (May 10, 6:00 PM)29.58 "Hg (May 19, 5:00 AM)
Average52 °F72%30.03 "Hg
* Reported May 9 8:00 AM — May 24 8:00 AM, Schwerin, Weather by CustomWeather, © 2015

Note: Actual official high and low records may vary slightly from our data, if they occured in-between our weather recording intervals... More about our weather records

Advertising

Schwerin weather history for previous 24 hours

 ConditionsComfort  
Time TempWeatherWind HumidityBarometerVisibility
8:00 AM
Sun, May 24
47 °FOvercast.2 mph86%30.16 "Hg11 mi
7:00 AM45 °FOvercast.1 mph92%30.16 "Hg7 mi
6:00 AM44 °FOvercast.1 mph97%30.15 "Hg6 mi
4:00 AM43 °FPassing clouds.2 mph97%30.16 "Hg10 mi
3:00 AM42 °FPassing clouds.2 mph96%30.16 "Hg9 mi
2:00 AM44 °FPassing clouds.2 mph93%30.16 "Hg12 mi
1:00 AM44 °FPassing clouds.2 mph91%30.16 "Hg10 mi
12:00 AM46 °FPassing clouds.2 mph86%30.16 "Hg12 mi
10:00 PM
Sat, May 23
49 °FPassing clouds.1 mph79%30.16 "Hg11 mi
9:00 PM52 °FOvercast.2 mph72%30.14 "Hg15 mi
8:00 PM54 °FPassing clouds.5 mph68%30.14 "Hg10 mi
7:00 PM56 °FPassing clouds.5 mph64%30.13 "Hg12 mi
6:00 PM58 °FPassing clouds.5 mph62%30.13 "Hg15 mi
4:00 PM56 °FPartly sunny.3 mph61%30.14 "Hg19 mi
3:00 PM54 °FOvercast.2 mph75%30.15 "Hg13 mi
2:00 PM52 °FLow clouds.5 mph86%30.16 "Hg12 mi
1:00 PM52 °FOvercast.5 mph85%30.15 "Hg25 mi
12:00 PM52 °FDrizzle. Low clouds.5 mph90%30.15 "Hg12 mi
10:00 AM54 °FDrizzle. Overcast.2 mph86%30.14 "Hg3 mi
9:00 AM53 °FFog.3 mph84%30.13 "Hg4 mi
Weather by CustomWeather, © 2015

See weather overviewHow to use our weather pages